QFA194 NZWN-YSSY

Flight info

Callsign QFA194
Flight time 2h 52m
Altitude 34000
Route TANEN M636 PLUGA DCT RIKNI DCT MARLN
Aircraft B738/M-SDE2E3FGHIRWXY/LB1

Departure

Time 2026-04-25 07:09
Airport Wellington International Airport (NZWN)

Arrival

Time 2026-04-25 10:01
Airport Sydney Kingsford Smith International Airport (YSSY)
Time Latitude Longitude Altitude Speed Heading
2026-04-25 06:08 -41.32756 174.81023 29 ft 0 kts 184°
2026-04-25 06:34 -41.32742 174.81024 27 ft 2 kts 184°
2026-04-25 06:34 -41.32727 174.81026 28 ft 2 kts 184°
2026-04-25 06:35 -41.32713 174.81033 28 ft 2 kts 223°
2026-04-25 06:35 -41.32705 174.81049 28 ft 2 kts 254°
2026-04-25 06:35 -41.32703 174.81061 28 ft 1 kts 272°
2026-04-25 06:35 -41.32704 174.81068 28 ft 0 kts 273°
2026-04-25 06:38 -41.32703 174.81027 28 ft 8 kts 272°
2026-04-25 06:39 -41.32703 174.80925 27 ft 12 kts 256°
2026-04-25 06:39 -41.32738 174.80821 24 ft 12 kts 207°
2026-04-25 06:39 -41.32841 174.80808 22 ft 15 kts 178°
2026-04-25 06:39 -41.32944 174.80798 22 ft 14 kts 184°
2026-04-25 06:40 -41.33039 174.80794 22 ft 12 kts 182°
2026-04-25 06:40 -41.33116 174.80789 24 ft 9 kts 182°
2026-04-25 06:40 -41.33170 174.80786 24 ft 6 kts 182°
2026-04-25 06:40 -41.33197 174.80783 24 ft 0 kts 182°
2026-04-25 06:42 -41.33238 174.80782 24 ft 6 kts 182°
2026-04-25 06:42 -41.33255 174.80780 24 ft 0 kts 182°
2026-04-25 06:46 -41.33282 174.80778 23 ft 6 kts 183°
2026-04-25 06:46 -41.33292 174.80778 23 ft 0 kts 183°
2026-04-25 06:48 -41.33292 174.80777 23 ft 0 kts 183°
2026-04-25 06:49 -41.33333 174.80775 23 ft 8 kts 182°
2026-04-25 06:49 -41.33350 174.80774 23 ft 0 kts 183°
2026-04-25 06:51 -41.33351 174.80774 23 ft 1 kts 183°
2026-04-25 06:51 -41.33358 174.80772 23 ft 0 kts 183°
2026-04-25 06:52 -41.33379 174.80771 22 ft 6 kts 182°
2026-04-25 06:52 -41.33402 174.80771 22 ft 0 kts 182°
2026-04-25 06:56 -41.33408 174.80769 22 ft 3 kts 182°
2026-04-25 06:56 -41.33432 174.80768 22 ft 0 kts 182°
2026-04-25 06:57 -41.33447 174.80768 22 ft 5 kts 182°
2026-04-25 06:57 -41.33468 174.80766 22 ft 0 kts 183°
2026-04-25 07:01 -41.33470 174.80766 22 ft 1 kts 183°
2026-04-25 07:01 -41.33498 174.80763 22 ft 4 kts 187°
2026-04-25 07:01 -41.33511 174.80760 22 ft 0 kts 191°
2026-04-25 07:08 -41.33514 174.80759 22 ft 3 kts 191°
2026-04-25 07:08 -41.33570 174.80687 19 ft 18 kts 262°
2026-04-25 07:08 -41.33534 174.80635 17 ft 0 kts
2026-04-25 07:08 -41.33521 174.80635 17 ft 15 kts
2026-04-25 07:09 -41.33150 174.80659 18 ft 89 kts
2026-04-25 07:09 -41.32312 174.80716 35 ft 147 kts
2026-04-25 07:09 -41.31249 174.80789 548 ft 152 kts
2026-04-25 07:09 -41.30200 174.80870 1160 ft 156 kts
2026-04-25 07:10 -41.29075 174.80953 1614 ft 171 kts
2026-04-25 07:10 -41.27859 174.81027 2052 ft 183 kts
2026-04-25 07:10 -41.26498 174.81004 2341 ft 205 kts 348°
2026-04-25 07:10 -41.25082 174.80409 2827 ft 220 kts 339°
2026-04-25 07:11 -41.23651 174.79735 3548 ft 223 kts 340°
2026-04-25 07:11 -41.22141 174.79120 4208 ft 230 kts 343°
2026-04-25 07:11 -41.20607 174.78577 4889 ft 234 kts 345°
2026-04-25 07:11 -41.18997 174.78035 5409 ft 245 kts 345°
2026-04-25 07:12 -41.17329 174.77477 6008 ft 253 kts 346°
2026-04-25 07:12 -41.13771 174.75922 6814 ft 284 kts 326°
2026-04-25 07:12 -41.12281 174.74196 7527 ft 286 kts 311°
2026-04-25 07:13 -41.10994 174.72176 8190 ft 289 kts 304°
2026-04-25 07:13 -41.10149 174.69778 8829 ft 291 kts 281°
2026-04-25 07:13 -41.09849 174.67177 9533 ft 291 kts 274°
2026-04-25 07:13 -41.09656 174.64478 9929 ft 296 kts 274°
2026-04-25 07:14 -41.09421 174.61769 9983 ft 295 kts 276°
2026-04-25 07:14 -41.09127 174.59084 9965 ft 292 kts 277°
2026-04-25 07:14 -41.08802 174.56450 9967 ft 294 kts 277°
2026-04-25 07:14 -41.08457 174.53766 9962 ft 293 kts 277°
2026-04-25 07:15 -41.08116 174.51123 9964 ft 293 kts 278°
2026-04-25 07:15 -41.07774 174.48456 9960 ft 293 kts 277°
2026-04-25 07:15 -41.07435 174.45805 10352 ft 295 kts 277°
2026-04-25 07:15 -41.07090 174.43083 10720 ft 309 kts 277°
2026-04-25 07:16 -41.06726 174.40218 11080 ft 323 kts 278°
2026-04-25 07:16 -41.06344 174.37216 11404 ft 339 kts 278°
2026-04-25 07:16 -41.05942 174.34085 11811 ft 350 kts 278°
2026-04-25 07:16 -41.05535 174.30924 12415 ft 354 kts 278°
2026-04-25 07:17 -41.05117 174.27692 13092 ft 356 kts 278°
2026-04-25 07:17 -41.04702 174.24495 13712 ft 359 kts 278°
2026-04-25 07:17 -41.04275 174.21210 14383 ft 362 kts 278°
2026-04-25 07:17 -41.03851 174.17938 14955 ft 366 kts 278°
2026-04-25 07:18 -41.03419 174.14610 15535 ft 370 kts 279°
2026-04-25 07:18 -41.02985 174.11272 16152 ft 373 kts 279°
2026-04-25 07:18 -41.02543 174.07893 16726 ft 375 kts 279°
2026-04-25 07:18 -41.02092 174.04443 17312 ft 378 kts 279°
2026-04-25 07:19 -41.01643 174.01033 17874 ft 381 kts 279°
2026-04-25 07:19 -41.01187 173.97571 18442 ft 384 kts 279°
2026-04-25 07:19 -41.00729 173.94102 18967 ft 387 kts 279°
2026-04-25 07:19 -41.00265 173.90599 19525 ft 389 kts 279°
2026-04-25 07:20 -40.99799 173.87085 20022 ft 392 kts 279°
2026-04-25 07:20 -40.99329 173.83551 20536 ft 394 kts 279°
2026-04-25 07:20 -40.98849 173.79948 21013 ft 398 kts 279°
2026-04-25 07:20 -40.98367 173.76340 21477 ft 401 kts 279°
2026-04-25 07:21 -40.97885 173.72739 21943 ft 403 kts 278°
2026-04-25 07:21 -40.97393 173.69073 22372 ft 407 kts 278°
2026-04-25 07:21 -40.96900 173.65410 22835 ft 409 kts 278°
2026-04-25 07:21 -40.96396 173.61673 23243 ft 412 kts 278°
2026-04-25 07:22 -40.95896 173.57973 23674 ft 414 kts 278°
2026-04-25 07:22 -40.95390 173.54237 24108 ft 416 kts 278°
2026-04-25 07:22 -40.94874 173.50444 24496 ft 420 kts 278°
2026-04-25 07:22 -40.94362 173.46681 24913 ft 422 kts 278°
2026-04-25 07:23 -40.93836 173.42830 25288 ft 425 kts 278°
2026-04-25 07:23 -40.93314 173.39017 25699 ft 427 kts 278°
2026-04-25 07:23 -40.92780 173.35126 26095 ft 429 kts 278°
2026-04-25 07:23 -40.92250 173.31277 26459 ft 432 kts 278°
2026-04-25 07:24 -40.91710 173.27365 26864 ft 433 kts 278°
2026-04-25 07:24 -40.91163 173.23410 27191 ft 437 kts 278°
2026-04-25 07:24 -40.90618 173.19490 27568 ft 439 kts 278°
2026-04-25 07:24 -40.90067 173.15527 27900 ft 441 kts 278°
2026-04-25 07:25 -40.89507 173.11513 28248 ft 443 kts 278°
2026-04-25 07:25 -40.88948 173.07516 28579 ft 445 kts 278°
2026-04-25 07:25 -40.88379 173.03456 28888 ft 448 kts 278°
2026-04-25 07:25 -40.87812 172.99425 29244 ft 449 kts 278°
2026-04-25 07:26 -40.87231 172.95306 29749 ft 446 kts 278°
2026-04-25 07:26 -40.86660 172.91277 30236 ft 444 kts 278°
2026-04-25 07:26 -40.86089 172.87254 30594 ft 444 kts 278°
2026-04-25 07:26 -40.85516 172.83223 30972 ft 444 kts 278°
2026-04-25 07:27 -40.84944 172.79211 31328 ft 444 kts 278°
2026-04-25 07:27 -40.84363 172.75143 31732 ft 442 kts 278°
2026-04-25 07:27 -40.83795 172.71187 32076 ft 442 kts 278°
2026-04-25 07:27 -40.83223 172.67206 32401 ft 442 kts 278°
2026-04-25 07:28 -40.82647 172.63203 32755 ft 441 kts 278°
2026-04-25 07:28 -40.82071 172.59210 33094 ft 440 kts 278°
2026-04-25 07:28 -40.81498 172.55249 33427 ft 440 kts 278°
2026-04-25 07:28 -40.80924 172.51291 33738 ft 439 kts 278°
2026-04-25 07:29 -40.80348 172.47331 33993 ft 439 kts 278°
2026-04-25 07:29 -40.79781 172.43437 34240 ft 439 kts 277°
2026-04-25 07:29 -40.78621 172.35504 34241 ft 439 kts 277°
2026-04-25 07:30 -40.77466 172.27664 34242 ft 438 kts 278°
2026-04-25 07:30 -40.76304 172.19806 34237 ft 439 kts 278°
2026-04-25 07:31 -40.75135 172.11940 34235 ft 439 kts 278°
2026-04-25 07:31 -40.73957 172.04059 34235 ft 438 kts 278°
2026-04-25 07:32 -40.72780 171.96213 34238 ft 438 kts 278°
2026-04-25 07:32 -40.71593 171.88335 34248 ft 438 kts 278°
2026-04-25 07:33 -40.70405 171.80489 34256 ft 438 kts 278°
2026-04-25 07:33 -40.69214 171.72653 34262 ft 438 kts 278°
2026-04-25 07:34 -40.68019 171.64835 34261 ft 438 kts 278°
2026-04-25 07:34 -40.66807 171.56946 34264 ft 438 kts 278°
2026-04-25 07:35 -40.65604 171.49161 34268 ft 438 kts 278°
2026-04-25 07:35 -40.64384 171.41303 34268 ft 439 kts 278°
2026-04-25 07:36 -40.63167 171.33484 34268 ft 439 kts 279°
2026-04-25 07:36 -40.61938 171.25632 34265 ft 439 kts 279°
2026-04-25 07:37 -40.60709 171.17824 34263 ft 436 kts 279°
2026-04-25 07:37 -40.59465 171.09964 34262 ft 438 kts 279°
2026-04-25 07:38 -40.58232 171.02202 34266 ft 437 kts 279°
2026-04-25 07:38 -40.56982 170.94369 34264 ft 438 kts 279°
2026-04-25 07:39 -40.55729 170.86545 34267 ft 438 kts 279°
2026-04-25 07:39 -40.54465 170.78691 34275 ft 439 kts 279°
2026-04-25 07:40 -40.53200 170.70862 34273 ft 439 kts 279°
2026-04-25 07:40 -40.51933 170.63066 34275 ft 439 kts 279°
2026-04-25 07:41 -40.50653 170.55238 34275 ft 439 kts 280°
2026-04-25 07:41 -40.49122 170.47478 34285 ft 439 kts 283°
2026-04-25 07:42 -40.47400 170.39784 34283 ft 440 kts 284°
2026-04-25 07:42 -40.45668 170.32121 34288 ft 442 kts 284°
2026-04-25 07:43 -40.43946 170.24412 34289 ft 443 kts 284°
2026-04-25 07:43 -40.42228 170.16663 34294 ft 441 kts 284°
2026-04-25 07:44 -40.40523 170.08954 34296 ft 441 kts 284°
2026-04-25 07:44 -40.38826 170.01280 34300 ft 440 kts 284°
2026-04-25 07:45 -40.37110 169.93545 34302 ft 442 kts 284°
2026-04-25 07:45 -40.35395 169.85837 34298 ft 443 kts 284°
2026-04-25 07:46 -40.33664 169.78085 34293 ft 444 kts 284°
2026-04-25 07:46 -40.31934 169.70375 34301 ft 442 kts 284°
2026-04-25 07:47 -40.30207 169.62700 34296 ft 443 kts 284°
2026-04-25 07:47 -40.28469 169.55005 34298 ft 441 kts 284°
2026-04-25 07:48 -40.26733 169.47336 34307 ft 443 kts 284°
2026-04-25 07:48 -40.24977 169.39607 34314 ft 442 kts 284°
2026-04-25 07:49 -40.23225 169.31926 34313 ft 443 kts 285°
2026-04-25 07:49 -40.21461 169.24217 34316 ft 443 kts 285°
2026-04-25 07:50 -40.19694 169.16519 34316 ft 443 kts 285°
2026-04-25 07:50 -40.17920 169.08820 34314 ft 443 kts 285°
2026-04-25 07:51 -40.16156 169.01190 34313 ft 443 kts 285°
2026-04-25 07:51 -40.14370 168.93491 34319 ft 443 kts 285°
2026-04-25 07:52 -40.12577 168.85788 34323 ft 444 kts 285°
2026-04-25 07:52 -40.10788 168.78124 34322 ft 444 kts 285°
2026-04-25 07:53 -40.08991 168.70459 34325 ft 443 kts 285°
2026-04-25 07:53 -40.07185 168.62775 34326 ft 444 kts 285°
2026-04-25 07:54 -40.05368 168.55074 34328 ft 443 kts 285°
2026-04-25 07:54 -40.03561 168.47441 34335 ft 443 kts 285°
2026-04-25 07:55 -40.01745 168.39789 34338 ft 444 kts 285°
2026-04-25 07:55 -39.99919 168.32126 34336 ft 443 kts 286°
2026-04-25 07:56 -39.98097 168.24506 34336 ft 443 kts 287°
2026-04-25 07:56 -39.96257 168.16834 34337 ft 442 kts 287°
2026-04-25 07:57 -39.94433 168.09253 34342 ft 442 kts 287°
2026-04-25 07:57 -39.92584 168.01592 34341 ft 443 kts 287°
2026-04-25 07:58 -39.90743 167.93990 34344 ft 443 kts 287°
2026-04-25 07:58 -39.88895 167.86385 34343 ft 443 kts 287°
2026-04-25 07:59 -39.87033 167.78746 34351 ft 443 kts 287°
2026-04-25 07:59 -39.85173 167.71143 34356 ft 442 kts 287°
2026-04-25 08:00 -39.83311 167.63553 34363 ft 442 kts 287°
2026-04-25 08:00 -39.81433 167.55922 34354 ft 444 kts 287°
2026-04-25 08:01 -39.79557 167.48325 34358 ft 443 kts 287°
2026-04-25 08:01 -39.77678 167.40735 34353 ft 443 kts 286°
2026-04-25 08:02 -39.75787 167.33128 34354 ft 442 kts 287°
2026-04-25 08:02 -39.73901 167.25562 34353 ft 443 kts 287°
2026-04-25 08:03 -39.72008 167.17989 34355 ft 443 kts 287°
2026-04-25 08:03 -39.70110 167.10417 34358 ft 443 kts 287°
2026-04-25 08:04 -39.68197 167.02817 34358 ft 443 kts 287°
2026-04-25 08:04 -39.66288 166.95256 34358 ft 443 kts 287°
2026-04-25 08:05 -39.64366 166.87668 34359 ft 443 kts 287°
2026-04-25 08:05 -39.62448 166.80121 34351 ft 442 kts 287°
2026-04-25 08:06 -39.60531 166.72592 34363 ft 443 kts 287°
2026-04-25 08:06 -39.58593 166.65012 34364 ft 444 kts 287°
2026-04-25 08:07 -39.56651 166.57434 34366 ft 444 kts 287°
2026-04-25 08:07 -39.54700 166.49852 34364 ft 445 kts 287°
2026-04-25 08:08 -39.52751 166.42294 34375 ft 444 kts 287°
2026-04-25 08:08 -39.50779 166.34674 34367 ft 444 kts 288°
2026-04-25 08:09 -39.48817 166.27116 34368 ft 443 kts 288°
2026-04-25 08:09 -39.46862 166.19609 34364 ft 444 kts 288°
2026-04-25 08:10 -39.44887 166.12045 34361 ft 445 kts 288°
2026-04-25 08:10 -39.42910 166.04498 34354 ft 446 kts 288°
2026-04-25 08:11 -39.40922 165.96936 34366 ft 445 kts 288°
2026-04-25 08:11 -39.38921 165.89343 34376 ft 445 kts 288°
2026-04-25 08:12 -39.36921 165.81776 34372 ft 445 kts 288°
2026-04-25 08:12 -39.34920 165.74229 34375 ft 444 kts 288°
2026-04-25 08:13 -39.32921 165.66715 34378 ft 445 kts 288°
2026-04-25 08:14 -39.29891 165.55365 34380 ft 446 kts 288°
2026-04-25 08:14 -39.27875 165.47842 34382 ft 445 kts 288°
2026-04-25 08:15 -39.25856 165.40328 34379 ft 445 kts 288°
2026-04-25 08:15 -39.23828 165.32803 34381 ft 444 kts 289°
2026-04-25 08:16 -39.21805 165.25320 34380 ft 446 kts 289°
2026-04-25 08:16 -39.19771 165.17819 34387 ft 445 kts 289°
2026-04-25 08:17 -39.17725 165.10298 34393 ft 444 kts 289°
2026-04-25 08:17 -39.15684 165.02814 34396 ft 443 kts 289°
2026-04-25 08:18 -39.13635 164.95325 34399 ft 445 kts 289°
2026-04-25 08:18 -39.11588 164.87860 34397 ft 445 kts 289°
2026-04-25 08:19 -39.09517 164.80336 34399 ft 446 kts 289°
2026-04-25 08:19 -39.07459 164.72879 34402 ft 445 kts 289°
2026-04-25 08:20 -39.05387 164.65395 34403 ft 444 kts 289°
2026-04-25 08:20 -39.03316 164.57933 34402 ft 444 kts 289°
2026-04-25 08:21 -39.01227 164.50426 34402 ft 445 kts 289°
2026-04-25 08:21 -38.99138 164.42944 34409 ft 445 kts 289°
2026-04-25 08:22 -38.97036 164.35435 34414 ft 445 kts 289°
2026-04-25 08:22 -38.94950 164.28005 34416 ft 445 kts 290°
2026-04-25 08:23 -38.92854 164.20558 34418 ft 443 kts 290°
2026-04-25 08:23 -38.90754 164.13126 34414 ft 445 kts 290°
2026-04-25 08:24 -38.88640 164.05661 34423 ft 444 kts 290°
2026-04-25 08:24 -38.86530 163.98233 34422 ft 447 kts 290°
2026-04-25 08:25 -38.84372 163.90654 34424 ft 457 kts 290°
2026-04-25 08:25 -38.82166 163.82932 34423 ft 467 kts 290°
2026-04-25 08:26 -38.80071 163.75618 34421 ft 475 kts 290°
2026-04-25 08:26 -38.77806 163.67737 34422 ft 474 kts 290°
2026-04-25 08:27 -38.75524 163.59821 34421 ft 474 kts 290°
2026-04-25 08:27 -38.73236 163.51904 34424 ft 475 kts 290°
2026-04-25 08:28 -38.70947 163.44008 34422 ft 475 kts 290°
2026-04-25 08:28 -38.68653 163.36116 34425 ft 475 kts 290°
2026-04-25 08:29 -38.66344 163.28198 34424 ft 474 kts 290°
2026-04-25 08:29 -38.64036 163.20306 34420 ft 475 kts 291°
2026-04-25 08:30 -38.61728 163.12434 34418 ft 476 kts 290°
2026-04-25 08:30 -38.59406 163.04540 34421 ft 475 kts 291°
2026-04-25 08:31 -38.57066 162.96651 34424 ft 475 kts 291°
2026-04-25 08:31 -38.54641 162.88786 34423 ft 475 kts 292°
2026-04-25 08:32 -38.52194 162.80986 34421 ft 476 kts 292°
2026-04-25 08:32 -38.49749 162.73207 34420 ft 477 kts 291°
2026-04-25 08:33 -38.47286 162.65370 34427 ft 476 kts 291°
2026-04-25 08:33 -38.44817 162.57518 34427 ft 477 kts 291°
2026-04-25 08:34 -38.42360 162.49716 34429 ft 477 kts 291°
2026-04-25 08:34 -38.39891 162.41890 34432 ft 476 kts 291°
2026-04-25 08:35 -38.37423 162.34084 34434 ft 476 kts 292°
2026-04-25 08:35 -38.34935 162.26245 34437 ft 477 kts 292°
2026-04-25 08:36 -38.32453 162.18451 34437 ft 478 kts 292°
2026-04-25 08:36 -38.29946 162.10599 34443 ft 477 kts 292°
2026-04-25 08:37 -38.27457 162.02821 34442 ft 477 kts 292°
2026-04-25 08:37 -38.24960 161.95041 34439 ft 478 kts 292°
2026-04-25 08:38 -38.22435 161.87193 34440 ft 478 kts 292°
2026-04-25 08:38 -38.19918 161.79393 34442 ft 479 kts 292°
2026-04-25 08:39 -38.17387 161.71573 34441 ft 480 kts 292°
2026-04-25 08:39 -38.14862 161.63791 34443 ft 478 kts 292°
2026-04-25 08:40 -38.12317 161.55971 34442 ft 478 kts 292°
2026-04-25 08:40 -38.09773 161.48171 34437 ft 479 kts 292°
2026-04-25 08:41 -38.07231 161.40398 34436 ft 479 kts 292°
2026-04-25 08:41 -38.04670 161.32591 34436 ft 480 kts 293°
2026-04-25 08:42 -38.02099 161.24776 34438 ft 480 kts 293°
2026-04-25 08:42 -37.99530 161.16988 34435 ft 480 kts 293°
2026-04-25 08:43 -37.97341 161.10365 34438 ft 477 kts 293°
2026-04-25 08:43 -37.94762 161.02582 34436 ft 480 kts 293°
2026-04-25 08:44 -37.92183 160.94823 34441 ft 480 kts 293°
2026-04-25 08:44 -37.89597 160.87064 34443 ft 480 kts 293°
2026-04-25 08:45 -37.87000 160.79288 34445 ft 481 kts 293°
2026-04-25 08:45 -37.84385 160.71483 34439 ft 480 kts 293°
2026-04-25 08:46 -37.81791 160.63762 34445 ft 479 kts 293°
2026-04-25 08:46 -37.79180 160.56010 34440 ft 481 kts 293°
2026-04-25 08:47 -37.76562 160.48257 34448 ft 481 kts 293°
2026-04-25 08:47 -37.73945 160.40527 34444 ft 481 kts 293°
2026-04-25 08:48 -37.71315 160.32785 34437 ft 480 kts 293°
2026-04-25 08:48 -37.68680 160.25043 34440 ft 481 kts 293°
2026-04-25 08:49 -37.66050 160.17335 34438 ft 480 kts 293°
2026-04-25 08:49 -37.63408 160.09611 34447 ft 481 kts 293°
2026-04-25 08:50 -37.60761 160.01898 34449 ft 481 kts 293°
2026-04-25 08:50 -37.58099 159.94159 34456 ft 481 kts 293°
2026-04-25 08:51 -37.55446 159.86467 34461 ft 480 kts 293°
2026-04-25 08:51 -37.52781 159.78761 34456 ft 481 kts 293°
2026-04-25 08:52 -37.50119 159.71080 34443 ft 480 kts 293°
2026-04-25 08:52 -37.47437 159.63364 34441 ft 482 kts 293°
2026-04-25 08:53 -37.44762 159.55688 34446 ft 483 kts 293°
2026-04-25 08:53 -37.42065 159.47969 34444 ft 483 kts 293°
2026-04-25 08:54 -37.39365 159.40262 34442 ft 483 kts 293°
2026-04-25 08:54 -37.36648 159.32524 34438 ft 483 kts 293°
2026-04-25 08:55 -37.33943 159.24843 34445 ft 482 kts 293°
2026-04-25 08:55 -37.31218 159.17123 34441 ft 484 kts 293°
2026-04-25 08:56 -37.28492 159.09425 34444 ft 484 kts 293°
2026-04-25 08:56 -37.25754 159.01706 34439 ft 486 kts 293°
2026-04-25 08:57 -37.23018 158.94012 34440 ft 484 kts 293°
2026-04-25 08:57 -37.20266 158.86299 34446 ft 485 kts 293°
2026-04-25 08:58 -37.17530 158.78647 34441 ft 484 kts 293°
2026-04-25 08:58 -37.14769 158.70943 34443 ft 485 kts 293°
2026-04-25 08:59 -37.11995 158.63220 34444 ft 486 kts 293°
2026-04-25 08:59 -37.09212 158.55496 34440 ft 487 kts 293°
2026-04-25 09:00 -37.06435 158.47809 34444 ft 486 kts 293°
2026-04-25 09:00 -37.03654 158.40131 34446 ft 486 kts 293°
2026-04-25 09:01 -37.00864 158.32451 34448 ft 486 kts 294°
2026-04-25 09:01 -36.98062 158.24753 34450 ft 487 kts 294°
2026-04-25 09:02 -36.95238 158.17013 34440 ft 489 kts 294°
2026-04-25 09:02 -36.92421 158.09314 34446 ft 488 kts 294°
2026-04-25 09:03 -36.89607 158.01640 34444 ft 488 kts 294°
2026-04-25 09:03 -36.86775 157.93939 34443 ft 488 kts 294°
2026-04-25 09:04 -36.83939 157.86241 34437 ft 488 kts 294°
2026-04-25 09:04 -36.81113 157.78597 34440 ft 488 kts 294°
2026-04-25 09:05 -36.78262 157.70898 34441 ft 488 kts 293°
2026-04-25 09:05 -36.75425 157.63260 34439 ft 489 kts 293°
2026-04-25 09:06 -36.72555 157.55551 34444 ft 488 kts 293°
2026-04-25 09:06 -36.69707 157.47917 34445 ft 489 kts 293°
2026-04-25 09:07 -36.66828 157.40221 34435 ft 490 kts 293°
2026-04-25 09:07 -36.63958 157.32567 34435 ft 489 kts 294°
2026-04-25 09:08 -36.61095 157.24950 34439 ft 488 kts 294°
2026-04-25 09:08 -36.58199 157.17268 34428 ft 489 kts 294°
2026-04-25 09:09 -36.55325 157.09663 34425 ft 489 kts 294°
2026-04-25 09:09 -36.52416 157.01981 34424 ft 490 kts 294°
2026-04-25 09:10 -36.49494 156.94281 34423 ft 491 kts 294°
2026-04-25 09:10 -36.46578 156.86618 34419 ft 491 kts 294°
2026-04-25 09:11 -36.42207 156.75169 34420 ft 490 kts 294°
2026-04-25 09:11 -36.39289 156.67548 34421 ft 490 kts 294°
2026-04-25 09:12 -36.36343 156.59874 34420 ft 490 kts 294°
2026-04-25 09:12 -36.33396 156.52214 34418 ft 491 kts 294°
2026-04-25 09:13 -36.31915 156.48377 33908 ft 493 kts 294°
2026-04-25 09:13 -36.30437 156.44580 34290 ft 483 kts 294°
2026-04-25 09:13 -36.28982 156.40839 34415 ft 487 kts 294°
2026-04-25 09:13 -36.27508 156.37032 34412 ft 491 kts 294°
2026-04-25 09:14 -36.24556 156.29391 34411 ft 490 kts 294°
2026-04-25 09:14 -36.21604 156.21771 34419 ft 491 kts 294°
2026-04-25 09:15 -36.18668 156.14218 34424 ft 486 kts 294°
2026-04-25 09:15 -36.15728 156.06683 34422 ft 488 kts 294°
2026-04-25 09:16 -36.12778 155.99139 34419 ft 487 kts 294°
2026-04-25 09:16 -36.09839 155.91644 34424 ft 485 kts 294°
2026-04-25 09:17 -36.05418 155.80400 34421 ft 488 kts 294°
2026-04-25 09:18 -36.02441 155.72855 34419 ft 487 kts 294°
2026-04-25 09:18 -35.99478 155.65363 34422 ft 487 kts 294°
2026-04-25 09:19 -35.96503 155.57857 34422 ft 487 kts 294°
2026-04-25 09:19 -35.93514 155.50330 34416 ft 487 kts 294°
2026-04-25 09:20 -35.90535 155.42850 34418 ft 486 kts 294°
2026-04-25 09:20 -35.87565 155.35406 34425 ft 486 kts 294°
2026-04-25 09:21 -35.84591 155.27969 34417 ft 488 kts 295°
2026-04-25 09:21 -35.81596 155.20497 34409 ft 487 kts 295°
2026-04-25 09:22 -35.78576 155.12981 34404 ft 487 kts 295°
2026-04-25 09:22 -35.75590 155.05568 34397 ft 486 kts 295°
2026-04-25 09:23 -35.72595 154.98151 34401 ft 484 kts 295°
2026-04-25 09:23 -35.69588 154.90720 34402 ft 486 kts 295°
2026-04-25 09:24 -35.66582 154.83307 34398 ft 487 kts 295°
2026-04-25 09:24 -35.63547 154.75841 34399 ft 486 kts 295°
2026-04-25 09:25 -35.60303 154.68576 34395 ft 487 kts 301°
2026-04-25 09:25 -35.56210 154.61894 34394 ft 488 kts 309°
2026-04-25 09:26 -35.51748 154.55598 34391 ft 489 kts 310°
2026-04-25 09:26 -35.47247 154.49377 34390 ft 489 kts 310°
2026-04-25 09:27 -35.42761 154.43120 34390 ft 490 kts 309°
2026-04-25 09:27 -35.38291 154.36827 34387 ft 488 kts 309°
2026-04-25 09:28 -35.33855 154.30548 34389 ft 490 kts 310°
2026-04-25 09:28 -35.29409 154.24246 34387 ft 489 kts 310°
2026-04-25 09:29 -35.24954 154.17937 34391 ft 488 kts 310°
2026-04-25 09:29 -35.20511 154.11655 34392 ft 489 kts 310°
2026-04-25 09:30 -35.16071 154.05391 34400 ft 487 kts 310°
2026-04-25 09:30 -35.11605 153.99101 34400 ft 489 kts 310°
2026-04-25 09:31 -35.07172 153.92868 34401 ft 490 kts 310°
2026-04-25 09:31 -35.02699 153.86592 34399 ft 488 kts 310°
2026-04-25 09:32 -34.98771 153.81090 34397 ft 489 kts 310°
2026-04-25 09:32 -34.94310 153.74852 34393 ft 489 kts 310°
2026-04-25 09:33 -34.89843 153.68619 34395 ft 488 kts 310°
2026-04-25 09:33 -34.85381 153.62401 34389 ft 489 kts 309°
2026-04-25 09:34 -34.80925 153.56203 34388 ft 488 kts 310°
2026-04-25 09:34 -34.76449 153.49988 34382 ft 488 kts 310°
2026-04-25 09:35 -34.71959 153.43767 34377 ft 488 kts 309°
2026-04-25 09:35 -34.67481 153.37570 34376 ft 490 kts 309°
2026-04-25 09:36 -34.62996 153.31377 34371 ft 489 kts 310°
2026-04-25 09:36 -34.58500 153.25180 34372 ft 489 kts 310°
2026-04-25 09:37 -34.54005 153.18996 34368 ft 488 kts 310°
2026-04-25 09:37 -34.49532 153.12851 34366 ft 489 kts 310°
2026-04-25 09:38 -34.45039 153.06691 34362 ft 487 kts 310°
2026-04-25 09:38 -34.40546 153.00540 34361 ft 489 kts 310°
2026-04-25 09:39 -34.36048 152.94395 34360 ft 488 kts 310°
2026-04-25 09:39 -34.31529 152.88231 34199 ft 485 kts 310°
2026-04-25 09:40 -34.27097 152.82201 33180 ft 478 kts 310°
2026-04-25 09:40 -34.24888 152.79198 32466 ft 479 kts 310°
2026-04-25 09:40 -34.22677 152.76192 31655 ft 482 kts 310°
2026-04-25 09:40 -34.20447 152.73163 30829 ft 484 kts 310°
2026-04-25 09:41 -34.18203 152.70119 29965 ft 487 kts 310°
2026-04-25 09:41 -34.15939 152.67049 29040 ft 491 kts 311°
2026-04-25 09:41 -34.13656 152.63956 28082 ft 494 kts 311°
2026-04-25 09:41 -34.11449 152.60779 27057 ft 498 kts 306°
2026-04-25 09:42 -34.09578 152.57278 25956 ft 502 kts 296°
2026-04-25 09:42 -34.08276 152.53456 24873 ft 504 kts 285°
2026-04-25 09:42 -34.07517 152.49348 24052 ft 489 kts 278°
2026-04-25 09:42 -34.07021 152.45406 23310 ft 472 kts 276°
2026-04-25 09:43 -34.06625 152.41540 22534 ft 470 kts 275°
2026-04-25 09:43 -34.06269 152.37628 21739 ft 468 kts 275°
2026-04-25 09:43 -34.05933 152.33742 20957 ft 466 kts 275°
2026-04-25 09:43 -34.05600 152.29875 20174 ft 462 kts 275°
2026-04-25 09:44 -34.05271 152.26132 19427 ft 444 kts 276°
2026-04-25 09:44 -34.04947 152.22507 18808 ft 439 kts 276°
2026-04-25 09:44 -34.04612 152.18813 18030 ft 443 kts 276°
2026-04-25 09:44 -34.04274 152.15164 17269 ft 440 kts 276°
2026-04-25 09:45 -34.03936 152.11594 16890 ft 421 kts 276°
2026-04-25 09:45 -34.03608 152.08166 16570 ft 397 kts 276°
2026-04-25 09:45 -34.03294 152.04936 16056 ft 392 kts 276°
2026-04-25 09:45 -34.02973 152.01694 15447 ft 389 kts 276°
2026-04-25 09:46 -34.02648 151.98462 14824 ft 388 kts 277°
2026-04-25 09:46 -34.02324 151.95259 14197 ft 385 kts 277°
2026-04-25 09:46 -34.02001 151.92076 13558 ft 384 kts 277°
2026-04-25 09:46 -34.01679 151.88904 12956 ft 381 kts 277°
2026-04-25 09:47 -34.01360 151.85762 12318 ft 380 kts 277°
2026-04-25 09:47 -34.01041 151.82628 11732 ft 377 kts 277°
2026-04-25 09:47 -34.00726 151.79541 11139 ft 374 kts 277°
2026-04-25 09:47 -34.00410 151.76447 10816 ft 363 kts 277°
2026-04-25 09:48 -34.00107 151.73491 10541 ft 352 kts 277°
2026-04-25 09:48 -33.99812 151.70613 10383 ft 339 kts 277°
2026-04-25 09:48 -33.99529 151.67864 10232 ft 326 kts 277°
2026-04-25 09:48 -33.99254 151.65204 10038 ft 317 kts 277°
2026-04-25 09:49 -33.98983 151.62590 9633 ft 314 kts 277°
2026-04-25 09:49 -33.98715 151.60005 9267 ft 311 kts 277°
2026-04-25 09:49 -33.98443 151.57394 8987 ft 304 kts 277°
2026-04-25 09:49 -33.98190 151.54948 8973 ft 289 kts 277°
2026-04-25 09:50 -33.97943 151.52579 8972 ft 281 kts 277°
2026-04-25 09:50 -33.97698 151.50233 8969 ft 284 kts 277°
2026-04-25 09:50 -33.97459 151.47884 8966 ft 283 kts 275°
2026-04-25 09:50 -33.97613 151.45581 8759 ft 278 kts 252°
2026-04-25 09:51 -33.98547 151.43552 8194 ft 278 kts 224°
2026-04-25 09:51 -34.00072 151.42192 7642 ft 274 kts 206°
2026-04-25 09:51 -34.01772 151.41183 7105 ft 272 kts 203°
2026-04-25 09:51 -34.03480 151.40260 6582 ft 269 kts 203°
2026-04-25 09:52 -34.05216 151.39453 6007 ft 268 kts 192°
2026-04-25 09:52 -34.07047 151.39116 5626 ft 264 kts 184°
2026-04-25 09:52 -34.08889 151.38942 5204 ft 266 kts 182°
2026-04-25 09:52 -34.10714 151.38789 5074 ft 255 kts 182°
2026-04-25 09:53 -34.12430 151.38646 4955 ft 245 kts 182°
2026-04-25 09:53 -34.14138 151.38503 4679 ft 243 kts 182°
2026-04-25 09:53 -34.15823 151.38359 4383 ft 242 kts 182°
2026-04-25 09:53 -34.17491 151.38219 4159 ft 239 kts 182°
2026-04-25 09:54 -34.19126 151.37849 3925 ft 236 kts 205°
2026-04-25 09:54 -34.20392 151.36649 3713 ft 234 kts 237°
2026-04-25 09:54 -34.21001 151.34869 3518 ft 231 kts 260°
2026-04-25 09:54 -34.21292 151.32948 3312 ft 230 kts 263°
2026-04-25 09:55 -34.21544 151.31071 3113 ft 229 kts 263°
2026-04-25 09:55 -34.21525 151.29164 2964 ft 224 kts 291°
2026-04-25 09:55 -34.20740 151.27588 2974 ft 220 kts 318°
2026-04-25 09:55 -34.19617 151.26361 2964 ft 216 kts 323°
2026-04-25 09:56 -34.18507 151.25229 2953 ft 202 kts 323°
2026-04-25 09:56 -34.17447 151.24144 2957 ft 195 kts 327°
2026-04-25 09:56 -34.16293 151.23355 2963 ft 189 kts 342°
2026-04-25 09:56 -34.15055 151.22913 2960 ft 182 kts 349°
2026-04-25 09:57 -34.13824 151.22571 2967 ft 181 kts 350°
2026-04-25 09:57 -34.12613 151.22249 2954 ft 173 kts 350°
2026-04-25 09:57 -34.11434 151.21942 2957 ft 172 kts 350°
2026-04-25 09:57 -34.10267 151.21639 2806 ft 172 kts 350°
2026-04-25 09:58 -34.09135 151.21344 2545 ft 161 kts 351°
2026-04-25 09:58 -34.08098 151.21074 2367 ft 150 kts 352°
2026-04-25 09:58 -34.07072 151.20811 2148 ft 146 kts 352°
2026-04-25 09:58 -34.06087 151.20557 1958 ft 146 kts 352°
2026-04-25 09:59 -34.05090 151.20305 1747 ft 146 kts 353°
2026-04-25 09:59 -34.04094 151.20048 1566 ft 145 kts 352°
2026-04-25 09:59 -34.03101 151.19786 1361 ft 145 kts 352°
2026-04-25 09:59 -34.02109 151.19531 1160 ft 146 kts 352°
2026-04-25 10:00 -34.01112 151.19273 968 ft 147 kts 352°
2026-04-25 10:00 -34.00116 151.19014 785 ft 147 kts 351°
2026-04-25 10:00 -33.99110 151.18756 582 ft 147 kts 351°
2026-04-25 10:00 -33.98099 151.18494 382 ft 149 kts 350°
2026-04-25 10:01 -33.97076 151.18231 201 ft 149 kts 350°
2026-04-25 10:01 -33.96072 151.17972 31 ft 146 kts 349°
2026-04-25 10:01 -33.95235 151.17757 28 ft 94 kts 348°
2026-04-25 10:01 -33.94776 151.17645 28 ft 42 kts 356°
2026-04-25 10:02 -33.94560 151.17668 28 ft 24 kts 15°
2026-04-25 10:02 -33.94433 151.17715 28 ft 9 kts 18°
2026-04-25 10:02 -33.94367 151.17735 28 ft 12 kts
2026-04-25 10:02 -33.94260 151.17719 28 ft 18 kts 346°
2026-04-25 10:03 -33.94135 151.17676 28 ft 18 kts 346°
2026-04-25 10:03 -33.94015 151.17642 28 ft 18 kts 347°
2026-04-25 10:03 -33.93891 151.17610 28 ft 18 kts 347°
2026-04-25 10:03 -33.93753 151.17574 28 ft 20 kts 347°
2026-04-25 10:04 -33.93621 151.17539 28 ft 18 kts 348°
2026-04-25 10:04 -33.93483 151.17505 28 ft 20 kts 353°
2026-04-25 10:04 -33.93347 151.17496 28 ft 18 kts 348°
2026-04-25 10:04 -33.93222 151.17464 28 ft 17 kts 347°
2026-04-25 10:05 -33.93106 151.17439 28 ft 12 kts 12°
2026-04-25 10:05 -33.93066 151.17513 28 ft 11 kts 64°
2026-04-25 10:05 -33.93011 151.17590 28 ft 12 kts 82°
2026-04-25 10:05 -33.93026 151.17685 28 ft 11 kts 112°
2026-04-25 10:06 -33.93073 151.17723 28 ft 8 kts 186°
2026-04-25 10:06 -33.93103 151.17717 28 ft 0 kts 189°
2026-04-25 10:06 -33.93110 151.17715 28 ft 2 kts 189°
2026-04-25 10:06 -33.93113 151.17715 28 ft 0 kts 189°